Theta_e
354 352 350 348 348 346 347 346 346 347 345 345 343 341 340 341 342 341 345 353 350 349 350 351 351 351 350 353 353 351 346 348 348 349 350 350 351 352 352 352 352 352 352
358 353 352 350 349 348 347 346 346 346 344 344 342 344 344 346 345 345 346 348 351 350 348 349 350 347 347 350 353 343 342 342 344 343 342 343 343 345 346 348 350 350 350
362 359 353 351 350 352 353 352 349 348 346 344 347 346 348 351 349 348 347 347 347 347 347 349 348 343 345 341 346 343 344 342 341 342 341 342 343 343 344 344 344 345 347
359 360 353 352 352 353 349 348 347 344 343 343 351 345 348 352 351 349 348 348 344 342 348 348 348 341 345 337 337 338 340 339 339 339 339 341 341 341 342 342 342 343 343
359 359 355 353 362 351 350 349 348 351 350 348 348 348 346 345 344 342 349 349 348 345 343 346 342 339 340 337 337 337 337 339 339 339 339 339 338 340 338 338 339 340 343
358 361 356 360 357 355 349 349 354 353 351 349 341 338 339 341 342 343 344 344 345 347 347 348 344 339 339 339 338 336 336 334 335 336 336 336 337 334 334 335 336 336 337
359 362 358 355 356 353 354 352 352 346 343 345 341 340 342 346 347 345 347 341 342 343 343 345 339 335 334 340 339 339 334 333 332 332 334 336 331 330 330 330 331 331 332
357 356 356 354 355 355 352 344 345 339 341 342 335 341 330 332 337 342 338 333 337 332 331 336 336 337 339 336 337 338 335 334 330 330 332 332 328 327 327 327 328 329 329
355 355 355 356 354 352 343 341 344 346 339 345 347 340 328 324 329 334 340 334 341 334 335 336 338 335 341 335 335 336 334 330 329 329 329 329 326 326 326 325 325 326 327
353 352 352 352 353 347 343 344 344 348 343 340 340 343 344 338 329 326 334 336 335 339 342 330 331 335 337 332 337 337 334 333 327 327 327 326 325 325 324 324 324 324 325
351 348 351 351 349 346 347 347 347 347 348 343 339 338 343 334 340 330 324 325 330 330 331 330 330 331 336 336 333 333 328 326 327 326 324 323 323 323 323 323 323 323 324
349 348 347 350 351 351 349 347 349 347 346 347 343 340 335 330 326 325 321 324 323 325 327 329 330 330 332 332 332 332 330 327 326 324 325 324 323 322 322 322 321 322 324
348 347 346 347 350 346 346 346 347 345 343 341 341 335 332 328 327 326 323 321 319 322 324 327 328 329 329 330 331 330 328 324 322 321 322 322 322 320 319 319 318 320 321
341 342 342 344 343 340 340 341 339 338 340 335 336 336 331 330 329 326 322 320 318 319 322 327 327 327 328 329 330 328 327 324 322 320 319 319 320 319 318 317 316 317 317
335 335 335 335 335 334 335 336 333 336 334 335 336 336 331 327 326 324 324 323 319 315 315 321 321 330 327 326 327 327 327 324 322 319 318 317 317 317 316 316 317 316 315
333 332 331 330 330 331 331 332 331 333 332 329 327 332 331 326 326 325 324 322 322 319 315 319 320 325 328 322 324 325 325 322 321 319 319 318 316 316 315 315 315 315 314
327 325 324 324 324 325 326 326 326 325 324 327 328 325 326 329 322 323 323 322 321 320 316 317 321 323 323 322 323 324 324 323 321 318 319 316 315 314 314 313 313 313 313
321 320 319 319 319 319 321 320 319 319 318 318 319 321 320 320 326 325 321 324 321 320 317 315 318 318 319 323 321 320 320 318 320 318 317 315 313 312 311 311 310 310 310
316 315 315 314 314 315 316 317 317 316 317 318 318 318 319 321 322 320 319 317 315 315 316 313 313 316 317 318 317 319 319 320 320 320 317 315 313 312 311 310 309 309 308
313 313 314 314 315 316 316 316 315 313 313 315 316 318 318 318 317 317 316 317 317 316 316 315 313 313 314 317 315 313 313 316 316 317 317 314 313 312 311 311 311 311 308
316 316 316 316 316 316 309 309 310 310 311 312 314 315 318 318 316 315 314 315 314 312 311 310 310 311 313 312 312 312 311 314 315 317 313 311 312 317 316 315 315 314 310
315 316 315 315 314 312 302 302 304 306 309 310 312 314 315 316 315 311 310 310 309 308 307 307 307 306 308 309 310 310 310 309 306 314 309 308 312 312 316 316 310 307 306
313 312 312 312 310 309 300 299 299 305 309 312 313 314 314 314 314 313 308 307 307 306 306 305 303 303 304 306 307 306 306 306 306 309 308 305 309 310 315 315 307 306 304
308 308 309 310 309 305 298 296 297 308 309 310 310 310 310 310 310 302 301 302 303 305 306 306 305 306 307 307 307 306 306 306 307 308 309 302 308 309 315 316 307 306 304
306 304 306 307 306 307 297 296 297 301 301 304 308 311 311 310 297 295 297 298 299 301 304 303 302 300 299 299 300 301 300 300 301 303 307 304 306 310 312 316 313 307 305
305 304 303 305 304 303 297 295 295 300 304 306 308 311 304 297 294 294 294 296 295 298 299 299 302 304 302 304 302 302 301 298 300 301 307 304 307 310 311 313 309 308 309
Wind_Speed
7 7 7 7 7 8 9 9 9 8 9 10 12 12 12 12 12 7 5 10 10 7 8 9 8 7 6 5 5 5 2 2 1 2 4 5 10 11 14 11 15 16 17
7 7 7 7 7 7 7 6 8 8 9 10 12 12 11 11 12 9 8 3 9 10 10 10 10 7 7 4 6 5 5 4 3 3 2 3 6 10 14 12 14 15 18
8 7 8 7 8 6 6 6 8 7 7 10 11 9 7 8 9 10 8 8 5 10 11 11 8 8 7 4 4 4 2 3 4 3 5 7 7 9 11 12 13 17 18
10 6 9 7 7 5 7 8 8 9 9 9 6 8 7 4 8 7 7 7 8 7 8 10 9 9 9 6 6 4 3 6 6 6 8 5 7 9 11 14 15 16 18
5 10 8 8 6 7 7 7 7 6 6 7 9 8 8 7 8 10 13 12 11 8 7 12 11 11 10 10 11 8 8 6 7 7 6 8 9 10 12 14 14 15 15
11 7 10 8 4 4 9 7 4 3 4 4 6 8 7 9 9 10 9 10 12 14 8 7 7 10 16 15 12 11 13 8 8 8 8 9 7 9 12 14 15 16 17
11 10 7 7 7 7 8 4 4 4 3 4 5 6 10 13 13 9 9 9 8 8 10 8 5 6 9 14 14 16 10 9 9 8 8 4 7 12 14 16 17 18 19
7 8 9 8 7 6 4 1 5 3 7 5 4 5 9 8 10 7 8 6 6 4 6 8 8 5 7 8 3 12 14 12 7 7 7 5 11 14 17 19 19 19 19
9 8 7 5 6 3 4 4 7 9 7 7 10 6 6 9 4 9 7 6 7 4 7 7 8 8 7 8 10 11 5 6 9 10 9 11 15 17 19 21 21 22 22
6 5 7 7 5 4 5 5 5 9 6 7 9 10 10 6 7 9 10 8 6 9 10 7 8 8 9 8 10 12 14 5 4 7 11 14 17 18 21 23 24 24 23
5 5 3 5 6 6 6 9 8 9 7 7 9 8 4 4 7 9 10 9 8 8 9 9 9 8 8 10 10 11 6 9 12 12 13 15 17 21 22 24 25 25 23
3 3 5 3 5 5 7 5 6 7 7 6 8 8 8 9 10 9 10 11 12 11 10 9 9 9 9 9 11 8 11 12 10 11 13 16 18 21 22 24 25 25 24
3 3 4 4 3 3 5 4 4 6 5 7 8 8 9 10 10 10 11 12 12 11 11 10 11 10 10 9 10 6 5 10 14 15 13 14 15 18 22 24 25 24 23
5 7 4 2 2 2 3 3 6 5 6 5 9 8 9 10 10 10 10 12 12 12 11 14 10 11 10 9 11 16 15 10 7 10 10 11 14 17 21 22 22 22 23
7 5 5 5 5 5 5 7 6 6 6 7 8 8 9 10 10 11 11 11 13 14 12 11 12 11 9 10 11 14 15 16 18 7 11 13 16 18 20 19 18 18 20
7 6 5 4 4 4 5 7 8 8 8 7 9 9 9 11 11 10 11 11 11 13 16 12 11 11 10 11 13 14 16 20 22 18 16 17 16 17 19 20 18 18 18
5 5 5 4 5 5 6 7 9 11 12 10 11 12 13 12 12 11 11 12 12 12 15 12 12 13 13 12 13 13 15 15 13 13 5 6 10 15 18 18 19 19 18
4 5 4 4 5 7 8 9 11 12 13 14 14 14 15 12 13 12 12 13 12 12 12 18 14 12 13 13 13 13 12 14 13 16 7 10 13 17 18 18 19 20 17
5 5 5 6 6 8 9 10 11 12 13 14 15 16 16 15 13 12 13 11 9 10 12 13 13 12 12 12 13 13 12 13 12 16 17 16 16 17 20 20 22 21 18
4 4 5 7 7 9 10 11 11 13 15 15 16 16 16 14 14 11 10 13 13 13 12 13 13 12 12 13 11 11 11 11 11 11 7 3 8 16 19 22 23 22 18
8 9 9 8 8 9 11 11 12 14 15 15 16 15 14 12 13 14 13 13 13 13 13 13 13 13 13 12 12 9 10 9 8 4 2 5 8 12 11 16 17 21 15
9 9 9 10 11 9 10 12 13 14 15 15 13 15 16 18 13 11 9 13 15 14 15 14 13 15 17 15 13 12 10 7 6 4 2 6 5 11 12 11 3 7 6
9 8 7 8 8 7 10 11 13 13 14 13 15 13 13 13 17 13 15 19 19 20 19 16 18 17 18 17 16 15 12 10 10 7 5 8 8 11 11 9 7 2 5
8 8 8 9 8 7 10 11 18 13 13 13 14 14 13 13 11 14 15 16 16 16 16 13 16 16 15 15 14 13 10 10 9 7 6 6 7 11 8 6 6 5 8
9 9 8 9 8 6 12 16 16 13 12 13 12 12 11 10 16 16 15 15 15 16 14 19 20 22 23 24 23 12 11 9 8 5 6 4 7 10 7 2 5 10 6
9 8 8 8 8 10 10 14 15 10 12 11 12 12 5 14 21 21 13 12 13 14 16 17 14 14 14 14 18 12 8 8 6 3 5 4 9 5 3 3 3 5 6
Wind_Direction
207 213 236 246 207 221 206 231 247 252 233 245 259 261 264 275 285 288 298 151 162 200 246 254 250 248 260 239 214 164 210 231 196 281 316 295 287 282 279 271 276 275 270
207 217 219 223 252 239 253 256 234 251 247 251 258 246 259 281 282 267 290 231 165 185 219 243 250 266 259 235 185 201 188 204 211 273 215 292 308 305 298 308 288 289 284
226 231 220 227 235 238 264 276 277 269 255 271 268 282 280 264 265 275 275 268 240 186 207 219 239 266 261 256 215 242 269 284 288 236 292 7 340 310 300 311 321 304 290
233 209 255 233 237 240 246 237 242 244 255 257 267 275 275 305 292 276 262 268 271 276 200 215 213 246 238 249 246 246 232 251 279 322 324 322 295 304 317 324 318 303 295
228 243 233 249 215 242 248 254 256 276 334 315 325 335 327 312 287 271 245 247 253 251 228 204 194 221 226 227 226 225 243 255 269 261 268 273 301 334 325 314 310 304 300
209 239 245 263 249 251 253 242 316 281 269 268 298 299 285 268 264 257 259 264 244 235 226 247 213 220 206 213 213 221 227 236 273 291 314 325 333 316 311 303 300 303 306
218 228 252 268 249 237 270 278 245 281 281 245 273 272 279 247 230 236 248 235 253 210 228 220 240 266 197 211 208 218 219 265 279 296 308 310 315 310 304 303 303 306 308
210 234 235 236 241 251 266 308 288 262 253 221 259 263 275 271 227 199 242 260 247 283 286 235 240 254 278 282 314 190 224 261 272 275 281 300 305 302 301 301 302 302 304
228 228 250 236 231 214 243 218 219 270 281 280 230 245 303 298 344 212 191 220 235 243 265 277 273 293 292 290 292 283 154 173 232 256 270 284 291 294 298 301 301 301 302
239 221 222 232 219 211 197 250 247 248 255 263 266 216 233 258 286 311 305 306 265 220 229 259 272 253 245 260 281 289 270 277 237 267 277 282 285 290 296 297 296 296 296
238 249 246 248 222 215 220 247 251 251 251 264 289 302 307 224 241 256 284 282 276 284 292 302 309 295 273 248 258 266 162 186 207 228 252 270 275 287 293 294 295 293 291
230 240 311 225 248 245 254 262 281 261 277 289 281 309 304 295 297 298 294 293 296 295 291 293 293 288 287 288 279 252 215 196 206 228 240 255 271 283 287 292 294 291 289
70 74 24 333 329 3 311 310 270 268 253 273 307 300 298 291 294 293 291 287 286 289 292 292 292 288 281 282 286 319 332 201 216 223 236 253 267 273 282 289 291 287 288
60 45 20 359 328 283 298 315 292 259 313 295 294 297 296 293 293 291 290 295 288 283 278 288 288 287 292 308 321 309 301 302 256 239 243 247 246 259 275 282 283 284 286
121 80 53 34 10 343 345 329 290 308 302 297 291 285 272 281 293 294 291 287 289 291 282 288 291 295 299 294 301 305 303 299 294 250 241 244 251 257 266 271 270 273 281
91 87 57 30 349 335 324 327 307 308 310 296 289 293 290 285 289 289 288 286 283 285 288 290 291 306 306 297 290 285 284 285 272 262 261 256 254 256 262 264 267 266 272
84 100 89 11 341 327 320 314 303 293 287 295 296 290 290 291 288 291 292 291 288 289 291 296 304 312 308 296 288 286 280 284 279 273 239 236 246 250 256 263 266 268 268
53 24 17 33 333 328 323 313 303 307 302 300 298 296 292 294 295 289 283 285 302 307 297 294 285 287 277 287 298 302 285 283 289 287 237 235 235 246 252 258 263 262 255
14 33 339 22 342 331 315 310 304 299 307 307 301 297 297 298 296 295 304 297 286 276 275 280 288 279 285 285 285 274 271 273 268 269 251 235 244 258 262 259 258 259 249
44 3 352 7 348 328 321 318 343 327 313 305 302 296 297 299 294 297 301 297 292 288 287 281 284 278 279 274 260 256 257 254 255 260 275 43 305 279 261 254 250 251 243
17 6 4 355 342 329 33 2 338 323 311 307 305 298 290 308 306 285 284 292 295 287 286 280 276 277 274 273 265 269 265 255 258 264 305 296 294 281 286 276 264 238 241
14 359 358 356 354 341 30 16 354 321 307 303 301 305 308 297 293 314 278 283 291 294 287 283 281 277 277 280 283 290 298 297 283 263 272 269 292 287 283 288 147 132 179
11 355 347 344 7 6 37 20 346 310 300 305 308 313 314 314 326 323 321 315 306 296 279 275 273 269 272 271 277 278 270 264 260 262 274 267 273 277 280 285 127 64 3
358 355 342 345 7 51 44 12 345 323 315 317 320 318 313 312 326 352 328 311 299 290 285 282 277 277 271 272 270 275 284 277 263 250 228 264 269 266 276 279 116 12 346
10 352 355 354 3 17 30 9 347 330 323 311 307 309 313 323 355 340 323 307 302 296 295 285 278 276 271 267 262 272 264 263 261 229 195 236 258 267 270 300 20 2 339
11 358 351 358 22 10 30 1 345 327 327 332 326 326 8 14 350 338 321 308 300 302 305 299 293 282 267 264 261 248 247 237 235 223 190 214 244 268 285 45 31 358 331